Location: Newark
(55.7083°N, 13.1992°E)
Time: 07:24:34
(UTC+00:00)

N. Korean satellite - Pass Details

Date: 28 January 2020
Orbit: 456 x 505 km, 97.2° (Epoch: 20 February)

Event Time Altitude Azimuth Distance (km) Brightness Sun altitude
Rises 16:39:16 0° 193° (SSW) 2,467 10.6 -9.4°
Reaches altitude 10° 16:41:31 10° 206° (SSW) 1,601 9.9 -9.7°
Maximum altitude 16:44:27 26° 266° (W) 940 9.0 -10.1°
Drops below altitude 10° 16:47:27 10° 325° (NW) 1,626 9.5 -10.5°
Sets 16:49:45 0° 338° (NNW) 2,515 10.3 -10.8°
